Lynchburg, VA

5:37 AM EST on November 15, 2019 (GMT -0500)
Lynchburg Regional-Glenn

Weather History for KLYH - September, 2019

Change the Weather History Date:

Monday, September 23, 2019

  Actual Average Record
Temperature  
Mean Temperature 77 °F 64 °F  
Max Temperature 91 °F 76 °F 97 °F (1895)
Min Temperature 62 °F 53 °F 36 °F (1983)
Degree Days  
Heating Degree Days 0 3  
Month to date heating degree days 5 27  
Since 1 July heating degree days 5 30  
Cooling Degree Days 12 2  
Month to date cooling degree days 233 105  
Year to date cooling degree days 1448 1003  
Growing Degree Days 26 (Base 50)    
Moisture  
Dew Point 60 °F    
Average Humidity 62    
Maximum Humidity 93    
Minimum Humidity 31    
Precipitation  
Precipitation 0.00 in 0.11 in 3.47 in (1912)
Month to date precipitation 0.06 3.01  
Year to date precipitation 27.64 30.94  
Snow  
Snow 0.00 in - - ()
Month to date snowfall 0.0  
Since 1 July snowfall 0.0  
Since 1 September snowfall 0.0  
Snow Depth 0.00 in    
Sea Level Pressure  
Sea Level Pressure 29.97 in    
Wind  
Wind Speed 5 mph (SW)    
Max Wind Speed 15 mph    
Max Gust Speed 23 mph    
Visibility 10 miles    
Events      
T = Trace of Precipitation, MM = Missing Value Source: NWS Daily Summary

Daily Weather History Graph

Daily Weather History Graph

Search for Another Location

Airport or City:

Astronomy

Sep. 23, 2019 Rise Set
Actual Time 7:05 AM EDT 7:12 PM EDT
Civil Twilight 6:39 AM EDT 7:38 PM EDT
Nautical Twilight 6:08 AM EDT 8:08 PM EDT
Astronomical Twilight 5:37 AM EDT 8:39 PM EDT
Moon 12:54 AM EDT (9/23) 3:56 PM EDT (9/23)
Length of Visible Light 12h 59m
Length of Day
12h 07m
Waning Crescent, 33% of the Moon is Illuminated
Sep 23
Waning Crescent
Sep 28
New
Oct 5
First Quarter
Oct 13
Full
Oct 21
Last Quarter

Hourly Weather History & Observations

Time (EDT) Temp. Heat Index Dew Point Humidity Pressure Visibility Wind Dir Wind Speed Gust Speed Precip Events Conditions
12:54 AM 72.0 °F - 62.1 °F 71% 30.05 in 10.0 mi SSW 8.1 mph - N/A   Clear
1:54 AM 68.0 °F - 62.1 °F 81% 30.05 in 10.0 mi SSW 5.8 mph - N/A   Clear
2:54 AM 69.1 °F - 62.1 °F 78% 30.04 in 10.0 mi SSW 6.9 mph - N/A   Clear
3:54 AM 66.9 °F - 62.1 °F 84% 30.02 in 10.0 mi SSW 4.6 mph - N/A   Clear
4:54 AM 66.0 °F - 61.0 °F 84% 30.02 in 10.0 mi SSW 4.6 mph - N/A   Clear
5:54 AM 63.0 °F - 61.0 °F 93% 30.01 in 10.0 mi SSW 3.5 mph - N/A   Clear
6:54 AM 62.1 °F - 60.1 °F 93% 30.02 in 10.0 mi South 4.6 mph - N/A   Clear
7:54 AM 64.9 °F - 62.1 °F 90% 30.03 in 10.0 mi SW 4.6 mph - N/A   Clear
8:54 AM 73.0 °F - 62.1 °F 68% 30.04 in 10.0 mi SSW 6.9 mph - N/A   Clear
9:54 AM 79.0 °F - 62.1 °F 56% 30.03 in 10.0 mi SSW 5.8 mph - N/A   Clear
10:54 AM 84.0 °F 83.8 °F 59.0 °F 43% 30.02 in 10.0 mi SW 8.1 mph - N/A   Clear
11:54 AM 86.0 °F 85.0 °F 57.9 °F 38% 29.99 in 10.0 mi West 6.9 mph - N/A   Clear
12:54 PM 88.0 °F 86.5 °F 55.9 °F 34% 29.97 in 10.0 mi SW 8.1 mph - N/A   Clear
1:54 PM 89.1 °F 87.1 °F 55.0 °F 31% 29.94 in 10.0 mi SSW 12.7 mph 18.4 mph N/A   Clear
2:54 PM 88.0 °F 85.7 °F 53.1 °F 30% 29.91 in 10.0 mi SSW 10.4 mph 20.7 mph N/A   Clear
3:54 PM 90.0 °F 87.9 °F 55.0 °F 30% 29.89 in 10.0 mi SW 9.2 mph - N/A   Partly Cloudy
4:54 PM 88.0 °F 86.5 °F 55.9 °F 34% 29.88 in 10.0 mi SW 6.9 mph - N/A   Overcast
5:54 PM 86.0 °F 84.9 °F 57.0 °F 37% 29.89 in 10.0 mi SW 3.5 mph - N/A   Overcast
6:54 PM 84.0 °F 83.5 °F 57.9 °F 41% 29.90 in 10.0 mi NNW 3.5 mph - N/A   Overcast
7:54 PM 80.1 °F 81.1 °F 61.0 °F 52% 29.90 in 10.0 mi NNE 3.5 mph - N/A   Overcast
8:54 PM 78.1 °F - 63.0 °F 60% 29.90 in 10.0 mi Calm Calm - N/A   Overcast
9:54 PM 75.9 °F - 63.0 °F 64% 29.90 in 10.0 mi Calm Calm - N/A   Overcast
10:54 PM 73.9 °F - 64.9 °F 73% 29.89 in 10.0 mi Calm Calm - N/A   Overcast